Temp
44 43 41 40 41 41 40 39 38 36 36 35 35 34 33 32 32 31 30 29 28 27 28 28 28 29 30 27 29 29 28 29 24 27 29 30 29 29 30 32 32 32 33
44 42 41 40 40 40 39 39 38 36 36 36 36 34 34 32 31 31 29 29 28 27 27 27 28 30 26 27 27 27 26 29 26 22 27 27 27 29 29 29 31 34 32
43 40 39 39 40 39 38 37 38 37 36 35 35 33 33 32 30 29 29 28 27 27 27 27 26 25 24 26 25 26 27 29 27 24 23 27 28 29 28 29 29 29 33
42 40 39 39 39 38 37 37 37 37 35 34 33 34 32 30 30 30 29 27 26 27 27 27 26 25 24 25 26 25 27 25 25 25 25 25 25 27 27 25 24 27 27
41 40 39 39 39 38 37 36 36 36 35 34 33 31 30 30 31 27 27 25 25 24 25 26 26 27 30 29 25 23 24 24 24 23 22 22 22 23 21 24 23 24 25
42 40 40 39 39 38 36 35 35 34 33 32 30 30 29 32 34 31 24 23 25 24 22 23 24 26 26 27 28 29 28 22 20 19 20 19 21 21 22 21 21 19 17
41 41 40 39 38 37 36 36 34 32 30 30 29 29 28 29 33 32 30 24 22 20 21 21 23 25 24 21 24 27 25 27 25 20 18 19 18 21 21 20 21 20 20
39 39 39 37 37 36 35 33 32 30 29 28 28 28 27 30 32 31 29 25 23 22 20 18 18 18 20 24 24 13 16 19 19 23 20 20 22 23 23 22 20 20 20
37 35 34 36 36 34 33 31 30 29 27 27 27 26 25 26 30 30 28 25 25 24 25 23 21 19 25 29 21 16 16 17 24 25 25 25 26 26 25 21 16 16 14
32 32 32 36 35 33 32 30 29 28 28 28 27 25 27 24 28 28 28 26 23 24 23 24 25 24 27 27 21 17 14 17 15 15 16 18 21 19 23 19 17 14 14
32 32 34 35 34 31 29 28 27 27 26 24 24 23 24 25 24 27 28 26 23 21 20 21 23 25 26 25 25 18 20 20 15 14 15 15 16 16 17 18 18 16 14
31 32 33 32 32 30 27 27 26 24 23 22 21 21 22 22 25 25 27 27 27 20 19 19 20 24 24 23 21 23 23 16 14 13 12 12 12 13 15 16 17 18 18
32 32 31 31 30 29 26 24 23 22 21 20 18 15 14 20 19 24 25 26 26 19 20 21 22 21 20 18 19 21 17 13 12 10 10 11 12 14 14 14 16 17 18
28 27 28 26 26 27 26 24 18 14 13 16 11 5 4 11 13 15 16 16 22 18 14 14 12 17 12 12 14 16 16 13 12 11 10 12 13 12 11 13 11 13 13
26 25 22 22 22 21 21 18 17 8 15 11 8 9 2 2 10 21 21 19 15 18 8 5 5 8 9 10 12 13 14 12 10 11 10 10 10 10 9 12 12 11 10
25 23 21 17 14 15 16 11 24 21 21 26 25 14 8 20 25 27 27 23 23 22 9 3 -1 -2 3 7 8 9 11 9 9 10 10 8 7 7 7 9 11 10 9
23 22 20 16 12 7 3 12 8 12 26 28 28 28 25 22 25 26 26 24 22 18 2 -0 -6 -5 -2 5 7 8 8 8 9 8 8 6 7 7 6 7 8 9 8
22 20 16 12 10 6 5 -0 -1 2 3 3 16 21 26 25 25 25 24 18 5 5 1 -1 -2 -1 0 4 5 6 8 6 6 7 5 5 5 5 4 5 6 6 7
17 12 11 10 8 7 2 -2 -4 -3 -2 -1 -2 8 6 23 23 23 21 1 -2 -1 0 -0 -3 -3 -3 1 2 3 3 4 3 4 3 4 3 4 3 4 5 7 7
12 11 12 11 5 1 -1 1 -3 -3 -4 -4 -4 -1 -0 5 3 1 -2 -6 -8 -6 -3 -6 -2 -7 -6 -5 -2 1 2 2 2 3 2 2 2 3 2 3 4 5 6
14 14 12 12 11 8 5 4 4 3 -1 -2 0 -2 4 6 7 3 1 -4 -9 -7 -5 -5 -5 -6 -6 -6 -1 0 0 0 2 2 1 -0 -0 0 3 3 4 6 7
16 15 13 11 9 7 7 8 7 5 3 3 3 3 4 -0 3 5 -0 1 0 -2 -2 -2 -6 -8 -8 -8 -3 -3 -2 -1 -1 0 -2 -2 -1 0 2 2 3 5 6
15 13 12 10 9 5 3 5 2 1 1 0 4 6 4 1 1 2 4 -1 -4 -3 -5 -7 -14 -10 -9 -10 -10 -7 -2 -0 -1 -2 -5 -5 -3 -1 -0 0 2 4 4
13 11 14 8 6 7 4 3 2 4 3 3 1 -1 -2 -3 -5 -3 -4 -3 -3 -7 -13 -17 -16 -13 -9 -10 -10 -6 -1 -2 -2 -5 -7 -5 -3 -2 -2 -1 3 3 3
7 5 7 8 7 4 2 5 3 2 5 2 -1 -4 -2 -5 -3 -7 -5 -7 -12 -17 -16 -16 -15 -14 -12 -11 -10 -8 -9 -6 -6 -6 -4 -4 -4 -4 -4 -0 2 2 3
9 9 7 5 2 -0 5 4 1 3 0 -2 -4 -6 -5 -6 -7 -11 -11 -13 -15 -16 -15 -15 -13 -12 -11 -9 -8 -4 -6 -7 -8 -7 -6 -4 -5 -6 -3 -1 1 1 3
MSLP
1016.12 1017.00 1017.75 1018.49 1019.22 1019.80 1020.39 1021.09 1021.40 1022.09 1022.48 1022.98 1023.28 1023.75 1024.00 1024.18 1024.54 1024.79 1024.94 1025.26 1025.07 1025.03 1025.05 1025.06 1024.88 1024.62 1024.39 1024.06 1023.65 1023.26 1022.79 1022.13 1021.20 1020.33 1020.37 1019.76 1019.02 1018.34 1017.56 1016.88 1016.23 1015.50 1014.78
1015.54 1016.54 1017.41 1018.25 1019.01 1019.61 1020.10 1020.68 1021.31 1021.76 1022.29 1022.75 1023.11 1023.60 1023.98 1024.47 1024.72 1024.76 1025.23 1025.27 1025.04 1025.14 1025.30 1025.37 1024.95 1024.76 1024.57 1024.06 1023.58 1023.14 1022.66 1022.10 1021.57 1020.03 1019.98 1019.32 1018.82 1018.02 1017.15 1016.39 1015.69 1014.94 1014.26
1015.15 1016.37 1017.35 1018.13 1018.67 1019.18 1019.79 1020.47 1021.06 1021.54 1022.10 1022.67 1023.04 1023.43 1024.03 1024.65 1024.90 1024.94 1025.23 1025.35 1025.35 1025.50 1025.42 1025.38 1025.19 1024.90 1024.47 1023.99 1023.55 1022.99 1022.65 1022.19 1021.59 1020.63 1019.27 1019.08 1018.38 1017.68 1016.55 1016.01 1015.30 1014.43 1013.69
1015.13 1016.00 1016.82 1017.66 1018.37 1018.80 1019.54 1020.33 1020.87 1021.38 1022.00 1022.54 1022.88 1023.36 1023.98 1024.53 1024.77 1025.04 1024.97 1025.37 1025.66 1025.70 1025.54 1025.39 1025.25 1024.91 1024.32 1023.82 1023.41 1023.10 1022.55 1022.13 1021.47 1020.58 1019.43 1018.76 1018.38 1017.38 1016.68 1015.68 1014.32 1014.10 1012.91
1014.59 1015.60 1016.43 1017.17 1017.89 1018.57 1019.44 1019.94 1020.65 1021.25 1021.83 1022.32 1022.96 1023.77 1024.06 1024.47 1024.53 1025.00 1025.09 1025.46 1025.84 1025.80 1025.60 1025.40 1025.15 1024.52 1023.94 1023.59 1023.31 1022.94 1022.44 1021.85 1021.37 1020.61 1019.68 1018.86 1018.18 1017.30 1016.94 1015.95 1014.80 1013.57 1012.55
1014.32 1015.35 1016.01 1016.90 1017.70 1018.53 1019.29 1019.81 1020.55 1020.98 1021.62 1022.37 1023.24 1023.77 1024.14 1024.29 1024.31 1024.65 1025.23 1025.27 1025.76 1025.75 1025.61 1025.38 1025.12 1024.42 1024.16 1023.69 1023.20 1022.64 1022.24 1021.87 1021.46 1020.96 1020.07 1019.10 1018.21 1017.94 1016.97 1016.02 1014.88 1013.53 1011.65
1014.00 1015.32 1016.06 1016.77 1017.88 1018.66 1019.34 1020.00 1020.70 1021.17 1021.66 1022.64 1023.32 1023.98 1024.24 1024.23 1024.18 1024.51 1024.54 1025.24 1025.52 1025.56 1025.42 1025.17 1024.77 1024.35 1024.09 1023.71 1022.97 1022.46 1022.30 1021.93 1021.49 1020.98 1020.03 1019.44 1018.39 1017.73 1016.79 1015.58 1014.70 1013.80 1012.31
1014.01 1015.47 1016.47 1017.23 1018.23 1018.79 1019.31 1020.07 1020.65 1021.07 1021.83 1022.67 1023.38 1023.82 1024.31 1024.27 1024.59 1024.36 1024.69 1025.19 1025.22 1025.21 1025.10 1024.86 1024.57 1024.15 1023.73 1023.00 1022.45 1022.26 1022.08 1021.71 1021.19 1020.54 1020.15 1019.19 1018.32 1017.30 1016.59 1015.64 1014.53 1013.33 1012.09
1014.07 1015.57 1016.56 1017.31 1018.13 1018.78 1019.29 1020.17 1020.61 1021.35 1021.97 1022.54 1023.40 1024.16 1024.51 1024.44 1024.56 1024.47 1024.82 1024.98 1024.97 1024.94 1024.76 1024.50 1024.16 1023.74 1023.22 1022.30 1022.22 1022.15 1021.90 1021.33 1020.65 1020.28 1019.49 1018.62 1017.78 1016.89 1016.24 1015.22 1014.37 1013.19 1011.34
1014.83 1015.62 1016.84 1017.41 1018.22 1019.23 1019.95 1020.49 1021.20 1021.65 1022.11 1022.67 1023.80 1024.39 1024.63 1024.64 1024.37 1024.77 1024.69 1024.72 1024.81 1024.57 1024.56 1024.27 1023.98 1023.51 1022.68 1022.23 1022.12 1022.04 1021.60 1020.91 1020.57 1019.77 1019.02 1018.25 1017.48 1016.71 1015.85 1015.43 1014.49 1013.28 1011.81
1014.86 1016.08 1017.21 1017.26 1018.46 1019.35 1020.26 1020.77 1021.64 1021.94 1022.39 1023.01 1023.98 1024.68 1024.72 1024.47 1024.63 1024.87 1024.55 1024.43 1024.44 1024.41 1024.35 1024.17 1023.96 1023.31 1022.73 1022.40 1022.20 1022.12 1021.38 1020.80 1020.51 1019.83 1018.95 1017.98 1017.14 1016.33 1015.45 1014.79 1014.14 1013.21 1011.69
1015.40 1016.41 1017.03 1017.87 1018.70 1019.63 1020.42 1021.35 1021.89 1022.20 1022.55 1023.38 1024.38 1024.87 1024.69 1024.67 1024.78 1024.88 1024.44 1024.31 1023.98 1024.21 1024.31 1024.20 1023.94 1023.31 1022.83 1022.62 1022.40 1021.74 1021.24 1021.25 1020.63 1019.84 1018.92 1017.96 1017.09 1016.09 1015.04 1014.22 1013.15 1012.08 1011.11
1016.02 1016.66 1017.51 1018.21 1018.97 1020.27 1020.67 1021.62 1022.08 1022.30 1022.89 1023.68 1024.52 1024.79 1024.89 1024.97 1025.08 1024.73 1024.47 1024.10 1023.97 1024.29 1024.36 1024.08 1023.84 1023.54 1023.19 1022.88 1022.45 1021.83 1021.55 1021.25 1020.61 1019.80 1018.88 1017.94 1017.23 1016.11 1014.94 1013.67 1012.33 1011.14 1009.69
1016.29 1016.87 1017.70 1018.60 1019.83 1020.51 1020.95 1021.62 1021.91 1022.62 1023.18 1023.83 1024.54 1024.76 1025.05 1025.31 1025.04 1024.84 1024.53 1024.19 1024.11 1024.37 1024.59 1024.43 1024.36 1023.78 1023.55 1023.05 1022.56 1022.13 1021.55 1021.22 1020.66 1019.81 1018.91 1017.85 1016.95 1015.85 1014.69 1013.56 1012.10 1010.52 1008.97
1016.71 1017.16 1018.13 1019.20 1020.07 1021.14 1021.47 1021.73 1022.33 1022.75 1022.76 1023.70 1024.19 1024.53 1024.93 1025.10 1024.78 1024.10 1023.78 1024.05 1023.97 1024.17 1024.47 1024.55 1024.61 1024.12 1023.68 1023.18 1022.61 1022.15 1021.48 1021.07 1020.48 1019.67 1018.76 1017.83 1016.82 1015.75 1014.55 1013.33 1012.03 1010.44 1009.05
1017.04 1018.07 1018.88 1019.81 1020.83 1021.45 1021.87 1022.63 1022.62 1022.46 1022.84 1022.93 1023.19 1023.67 1024.09 1024.19 1024.08 1023.68 1023.48 1023.88 1023.80 1023.77 1024.36 1024.98 1024.87 1024.53 1024.19 1023.52 1022.77 1022.07 1021.43 1021.03 1020.47 1019.64 1018.68 1018.08 1016.98 1015.86 1014.53 1013.11 1011.90 1010.55 1008.91
1017.43 1018.57 1019.61 1020.45 1021.17 1021.82 1022.48 1022.86 1023.27 1023.34 1023.09 1022.96 1022.80 1022.84 1023.39 1023.75 1023.63 1023.52 1023.48 1023.58 1023.79 1023.85 1024.73 1025.05 1025.02 1024.67 1024.22 1023.64 1022.90 1022.20 1021.40 1020.94 1020.39 1019.66 1018.84 1018.13 1017.07 1015.93 1014.75 1013.16 1011.73 1010.33 1008.62
1018.01 1018.95 1019.79 1020.50 1021.37 1022.20 1022.65 1022.92 1023.42 1023.97 1024.38 1023.78 1023.31 1023.16 1023.03 1023.31 1023.39 1023.42 1023.44 1023.77 1024.23 1024.26 1024.94 1025.14 1024.97 1024.61 1024.15 1023.63 1022.92 1022.21 1021.37 1020.88 1020.27 1019.52 1018.88 1018.12 1017.12 1016.09 1014.66 1013.28 1011.82 1010.34 1008.72
1018.50 1019.30 1019.96 1020.83 1021.63 1022.22 1022.74 1023.24 1023.82 1024.17 1024.32 1024.49 1024.40 1023.85 1023.91 1023.26 1023.27 1023.39 1023.45 1024.15 1024.93 1025.04 1025.10 1025.03 1024.58 1024.45 1024.13 1023.60 1022.95 1022.18 1021.50 1020.80 1020.13 1019.35 1018.80 1018.00 1017.12 1016.10 1014.72 1013.48 1011.91 1010.27 1008.77
1018.92 1019.39 1020.08 1021.00 1021.89 1022.43 1022.96 1023.46 1023.92 1024.31 1024.65 1024.75 1024.75 1024.65 1023.98 1023.93 1024.06 1024.23 1024.04 1024.36 1024.95 1024.99 1024.76 1024.77 1024.41 1024.21 1023.93 1023.48 1022.83 1022.02 1021.38 1020.65 1019.92 1019.16 1018.69 1018.00 1017.13 1016.14 1014.81 1013.42 1011.95 1010.26 1008.53
1018.96 1019.59 1020.05 1020.81 1021.61 1022.24 1022.71 1023.15 1023.67 1024.25 1024.50 1024.62 1024.67 1024.06 1023.86 1024.25 1024.23 1024.29 1024.30 1024.35 1024.51 1024.43 1024.39 1024.43 1024.36 1024.20 1023.78 1023.29 1022.69 1022.07 1021.35 1020.61 1019.86 1019.20 1018.72 1018.06 1017.12 1015.95 1014.75 1013.42 1011.94 1010.32 1008.68
1018.88 1019.52 1020.25 1020.87 1021.41 1021.90 1022.43 1022.99 1023.56 1023.96 1024.15 1024.32 1024.38 1023.84 1023.83 1024.00 1024.00 1023.95 1024.02 1024.07 1024.09 1024.13 1024.16 1024.23 1024.41 1024.17 1023.70 1023.32 1022.78 1022.15 1021.27 1020.46 1019.75 1019.32 1018.77 1018.06 1017.03 1015.87 1014.63 1013.35 1011.83 1010.27 1008.78
1018.99 1019.76 1020.32 1020.86 1021.34 1021.86 1022.38 1022.85 1023.29 1023.59 1023.83 1024.01 1024.11 1024.02 1023.80 1023.83 1023.75 1023.79 1023.81 1023.87 1023.95 1023.90 1024.02 1024.11 1024.32 1023.88 1023.27 1022.91 1022.49 1022.01 1021.07 1020.28 1019.88 1019.44 1018.89 1017.98 1016.91 1015.70 1014.65 1013.34 1011.88 1010.24 1008.92
1019.15 1019.82 1020.30 1020.82 1021.31 1021.78 1022.18 1022.60 1022.95 1023.25 1023.54 1023.76 1023.96 1023.77 1023.73 1023.60 1023.61 1023.60 1023.70 1023.81 1023.77 1023.98 1024.15 1024.19 1023.97 1023.59 1023.01 1022.50 1022.01 1021.47 1020.80 1020.31 1019.69 1019.24 1018.75 1017.84 1016.70 1015.58 1014.53 1013.28 1011.83 1010.38 1008.99
1019.27 1019.95 1020.38 1020.80 1021.22 1021.62 1022.03 1022.41 1022.76 1023.06 1023.32 1023.45 1023.67 1023.54 1023.41 1023.44 1023.55 1023.66 1023.86 1023.88 1024.11 1024.39 1024.11 1023.80 1023.50 1023.13 1022.65 1022.15 1021.58 1021.01 1020.47 1019.87 1019.33 1018.75 1018.02 1017.32 1016.47 1015.47 1014.42 1013.05 1011.75 1010.31 1008.77
1019.40 1019.81 1020.36 1020.88 1021.16 1021.50 1021.80 1022.16 1022.46 1022.76 1023.13 1023.16 1023.20 1023.33 1023.40 1023.52 1023.66 1023.84 1024.07 1024.28 1024.45 1024.11 1023.82 1023.49 1023.10 1022.68 1022.17 1021.56 1020.94 1020.39 1019.89 1019.31 1018.78 1018.08 1017.50 1016.73 1016.04 1015.17 1014.08 1012.73 1011.44 1010.33 1008.73
Wind_Speed
13 11 11 9 9 9 8 7 7 7 8 7 6 6 5 5 5 4 5 4 5 5 5 5 7 7 6 6 6 5 7 7 12 9 10 11 14 14 13 12 14 13 10
14 12 12 11 10 10 9 8 7 8 7 7 6 6 5 5 4 5 4 3 5 5 6 6 6 7 7 7 6 8 8 5 9 18 12 11 12 14 14 15 11 12 12
14 13 11 11 11 11 9 8 7 7 7 6 6 6 6 6 5 4 4 4 4 4 5 6 6 7 7 7 7 8 7 8 10 12 14 10 11 11 14 12 13 13 11
14 14 13 13 12 10 9 8 7 6 7 6 6 6 6 6 5 4 5 4 4 4 5 5 6 8 8 7 8 7 9 9 10 11 12 12 11 13 10 14 14 12 13
16 14 13 12 11 10 8 7 7 6 6 6 7 5 7 6 4 4 5 4 3 3 5 6 6 10 14 13 8 8 10 9 9 11 12 12 12 10 14 13 14 15 13
15 13 13 12 11 10 8 8 7 7 6 8 6 8 6 5 8 10 6 3 3 4 5 5 6 8 10 17 17 20 15 11 11 10 11 13 12 14 13 13 14 13 17
14 13 12 11 11 9 8 8 7 7 7 7 7 7 6 5 6 5 6 1 2 3 4 5 7 7 11 8 14 11 12 18 16 11 13 12 17 15 15 16 15 15 16
14 13 12 10 9 9 9 8 7 7 9 7 8 7 5 5 4 6 5 1 3 3 4 4 5 6 8 13 7 4 5 9 9 8 11 14 14 15 14 14 16 17 15
15 14 11 11 10 9 9 8 7 9 8 7 8 7 5 3 5 6 4 3 5 5 6 5 5 5 15 20 8 6 8 9 9 20 23 24 25 25 22 12 12 14 14
12 11 10 10 10 9 8 8 6 8 10 8 9 5 7 3 7 6 5 3 4 4 4 6 11 13 20 20 11 8 10 10 11 13 12 14 16 15 22 11 10 12 14
12 11 10 10 10 9 7 8 8 8 9 8 8 4 5 5 4 5 7 4 3 1 4 5 6 18 19 19 18 9 12 14 13 11 11 10 11 11 10 10 12 11 13
12 11 10 11 8 8 11 7 8 8 9 7 6 4 3 3 3 5 8 8 9 2 3 4 6 18 17 17 13 19 20 12 9 9 10 10 11 12 12 13 15 14 13
13 12 11 10 9 9 10 8 6 6 6 5 4 3 1 1 2 8 10 10 7 2 3 9 14 16 16 10 17 19 11 7 9 9 10 10 11 12 15 14 15 16 16
12 12 10 10 9 7 6 5 6 4 4 4 3 3 1 2 3 3 4 2 4 3 3 4 5 9 7 7 8 9 7 7 9 9 10 9 11 11 12 12 13 14 14
10 10 9 6 7 6 4 5 5 2 6 5 3 4 4 3 4 6 6 1 1 2 2 3 3 4 6 7 7 7 8 7 9 9 10 10 12 12 12 12 12 13 13
10 7 6 6 4 4 5 3 3 8 7 8 8 7 3 7 9 8 9 5 8 8 2 2 3 3 5 7 8 8 8 8 9 10 9 11 12 12 13 13 12 12 13
10 8 6 6 5 5 2 4 4 4 4 4 6 6 11 8 6 8 10 6 7 6 0 2 3 3 4 6 7 8 9 8 10 9 8 11 11 12 15 13 13 13 14
8 9 6 5 5 4 4 4 4 4 2 2 4 1 5 4 5 7 8 4 3 3 1 2 3 4 4 6 7 8 8 8 8 9 8 10 11 12 13 13 13 15 15
7 5 5 5 4 5 4 4 3 3 2 2 3 4 3 5 5 6 5 3 3 3 3 3 3 3 4 5 6 7 6 8 8 8 7 9 11 11 12 13 14 19 19
5 8 7 5 4 4 3 4 3 3 2 3 2 4 2 2 1 2 2 1 2 3 4 3 4 3 4 4 6 5 8 9 9 6 8 9 10 11 12 14 14 15 15
5 6 7 4 4 4 4 4 3 3 3 3 4 4 5 3 4 4 3 3 3 3 3 2 3 3 4 5 5 7 7 8 9 6 8 9 10 11 12 12 14 14 14
5 5 4 4 3 3 3 3 4 4 3 3 3 2 4 2 3 4 3 4 3 2 2 1 3 3 4 4 5 7 8 8 5 8 9 10 10 11 11 12 13 13 14
4 4 3 2 2 4 3 3 3 3 3 4 3 3 2 3 3 3 3 1 1 0 1 2 3 4 4 4 4 5 7 7 7 8 10 10 10 10 11 12 13 14 14
3 4 4 3 3 3 3 4 3 4 3 3 3 3 3 3 3 2 2 2 0 1 2 3 3 5 5 5 4 5 6 6 8 8 9 10 10 12 11 12 12 16 14
3 3 4 4 4 4 3 3 3 3 3 3 3 2 2 2 2 1 2 1 1 2 4 4 4 5 7 9 9 9 8 12 10 11 8 10 11 13 11 11 13 14 16
3 4 4 3 3 3 4 3 3 3 3 3 3 3 2 2 1 2 2 2 2 3 5 4 5 8 9 8 9 12 12 12 11 13 9 8 8 9 9 13 17 12 15
Wind_Direction
152 151 145 143 142 139 138 143 138 138 144 146 140 131 123 112 110 94 85 43 30 10 358 354 338 328 354 325 321 313 304 284 299 308 312 314 315 313 312 312 311 310 306
153 150 148 144 144 145 145 145 145 141 154 149 145 135 123 120 119 97 76 46 31 8 348 335 345 348 327 320 319 318 308 331 311 308 316 318 314 314 310 312 313 310 309
151 149 147 151 153 153 145 146 146 141 152 146 149 137 128 135 120 107 83 45 21 353 342 336 347 337 321 317 323 318 338 326 309 305 311 311 316 315 312 312 315 309 305
153 155 155 160 156 147 146 150 145 142 141 159 150 133 128 130 128 122 85 48 7 3 353 346 337 326 302 333 326 335 326 314 308 304 309 318 319 316 311 320 316 314 311
158 160 161 154 150 144 148 143 139 140 140 142 130 119 126 136 135 115 85 49 356 340 340 342 340 319 346 337 331 316 310 306 325 314 312 315 315 327 323 318 309 311 308
159 159 149 149 146 153 146 141 142 129 133 125 131 139 143 132 119 126 110 66 349 338 330 323 323 343 332 330 319 317 327 330 317 312 312 305 323 318 311 312 307 312 311
153 153 146 145 150 147 140 137 135 128 120 126 124 134 126 129 113 104 85 57 289 299 296 306 329 335 322 303 300 329 324 322 317 308 298 324 313 310 308 307 308 303 298
142 141 133 138 149 145 140 142 129 127 128 130 132 128 128 107 86 71 72 301 318 294 276 284 289 291 302 313 330 302 296 301 295 302 316 306 300 306 306 310 303 303 292
136 134 148 160 150 145 141 142 129 125 119 121 124 112 104 72 70 42 39 359 342 316 338 323 316 309 309 334 344 319 312 300 310 320 316 315 315 315 314 315 309 306 303
132 140 156 154 141 141 136 129 124 127 124 119 117 118 118 96 55 23 12 352 328 325 329 331 330 331 333 338 340 338 318 322 334 325 317 315 312 306 313 305 305 300 300
130 140 154 135 137 132 125 128 129 125 120 113 115 124 120 99 52 359 354 350 305 311 325 331 336 329 336 340 338 323 319 348 328 318 315 315 317 314 311 310 302 295 294
136 140 132 128 131 128 129 128 128 126 121 126 134 134 114 86 22 341 348 336 335 23 347 333 323 338 338 340 340 323 337 339 318 317 316 320 320 317 316 311 304 297 286
140 134 128 128 123 142 135 139 134 123 127 135 145 136 111 4 307 320 326 327 352 68 3 348 349 344 341 334 333 332 342 323 320 320 317 317 318 313 309 310 307 303 296
137 131 131 123 136 137 130 139 126 121 125 129 140 138 199 299 296 298 287 338 334 78 3 346 337 338 323 305 317 325 318 328 321 316 312 312 314 315 315 315 314 314 311
131 127 121 130 132 130 125 143 140 193 147 160 186 158 153 262 262 281 351 227 294 141 47 356 329 330 336 329 321 325 318 329 325 321 314 323 319 318 316 318 314 313 310
130 129 133 126 129 132 126 62 137 144 180 184 179 172 225 218 265 331 335 12 353 2 29 315 309 313 313 318 320 320 316 326 323 319 316 323 318 319 317 317 315 315 313
133 138 135 133 135 131 116 143 128 357 14 214 218 223 192 208 269 324 323 352 345 2 145 282 272 282 292 305 312 314 311 322 318 316 320 319 317 317 321 318 317 316 316
129 135 142 140 133 139 149 139 118 136 153 301 2 312 193 228 292 315 317 13 344 341 243 247 272 278 291 307 310 309 307 312 310 310 319 317 319 318 319 319 317 316 316
131 142 137 131 142 142 129 115 123 125 160 212 337 338 309 265 289 295 323 161 218 262 263 272 263 274 288 300 301 297 306 303 303 300 315 316 321 318 315 315 313 315 316
125 133 135 141 134 116 124 132 124 137 180 209 213 233 288 68 327 275 266 212 223 246 255 259 284 282 290 289 296 292 309 309 307 302 318 319 317 314 312 314 314 315 316
131 139 138 122 142 156 155 161 157 159 197 205 227 225 212 188 241 229 244 241 231 250 265 272 294 297 291 294 297 311 306 303 304 315 320 318 315 313 311 311 310 311 313
135 133 137 156 149 134 165 156 161 187 194 200 245 264 220 206 236 250 248 255 253 236 215 273 285 280 281 286 306 310 305 303 314 323 319 313 310 308 309 312 311 313 317
127 138 137 126 141 148 136 161 175 186 203 218 225 248 240 248 252 258 261 256 208 114 318 296 289 301 292 288 286 288 296 313 323 320 311 310 305 305 310 309 312 316 318
136 157 167 164 156 160 164 181 199 202 214 229 230 241 254 258 259 249 201 167 307 300 291 287 283 286 297 297 290 292 297 314 313 307 299 298 299 306 306 306 312 314 311
128 139 144 156 167 179 173 188 199 204 200 204 229 228 238 219 196 199 174 227 274 289 291 294 286 289 298 303 298 297 294 312 304 300 301 298 293 300 297 303 313 312 311
148 156 164 156 147 166 179 183 204 192 199 204 208 202 199 226 240 186 237 253 270 286 293 285 292 305 306 301 296 309 311 304 304 305 303 294 299 299 303 307 313 313 310